[[{"header":{"parameterUnit":"m.s-1","parameterCategory":1,"la1":30.2991,"la2":30.254,"lo1":-89.0895,"lo2":-89.0444,"dy":0.0017,"dx":0.0017,"nx":28,"ny":28,"refTime":"2024-05-29T03:00:00:Z","depth":0,"parameterNumber":2,"parameterNumberName":"U-component_of_WINDS"},"data":[0,0,0,0,0,0,0,0,0,0,0,0,0,0,0,0,0,0,0,0,0,0,0,0,0,0,0,0,0,0,0,0,0,0,0,0,0,0,0,0,0,0,0,0,0,0,0,0,0,0,0,0,0,0,0,0,0,0,-0.3474,-0.3474,0,-0.3472,-0.3472,-0.3472,-0.3467,-0.3467,-0.3467,-0.3466,-0.3464,-0.3464,-0.3464,0,0,0,0,0,0,0,0,0,0,0,0,0,-0.3475,-0.3475,-0.3474,-0.3474,-0.3474,-0.3472,-0.3472,-0.3472,-0.3467,-0.3467,-0.3466,-0.3466,-0.3464,-0.3464,-0.3464,0,0,0,0,0,0,0,0,0,0,0,0,0,-0.3474,-0.3475,-0.3474,-0.3471,-0.3471,-0.3472,-0.3472,-0.3472,-0.3467,-0.3467,-0.3466,-0.3466,-0.3464,-0.3464,-0.3464,-0.3468,0,0,-0.3465,-0.3465,0,0,0,0,0,0,0,0,-0.3474,-0.3474,-0.3472,-0.3472,-0.3471,-0.3469,-0.3471,-0.3471,-0.3467,-0.3468,-0.3466,-0.3466,-0.3466,-0.3466,-0.3466,-0.3468,-0.3468,-0.3465,-0.3465,-0.3465,-0.3465,0,0,0,0,0,0,0,-0.3474,-0.3474,-0.3473,-0.3472,-0.3471,-0.347,-0.347,-0.3471,-0.3468,-0.3468,-0.3468,-0.3468,-0.3466,-0.3466,-0.3466,-0.3468,-0.3465,-0.3465,-0.3465,-0.3465,-0.3473,-0.3473,0,0,0,0,0,0,-0.3474,-0.3474,-0.3473,-0.3473,-0.3472,-0.3471,-0.347,-0.347,-0.3468,-0.3468,-0.3468,-0.3467,-0.3466,-0.3466,-0.3466,-0.347,-0.3465,-0.3465,-0.3465,-0.3473,-0.3473,-0.3473,0,0,0,0,0,0,-0.3474,-0.3474,-0.3474,-0.3474,-0.3473,-0.3471,-0.3471,-0.347,-0.347,-0.3468,-0.3467,-0.3468,-0.3466,-0.3466,-0.3468,-0.347,-0.3465,-0.3465,-0.3473,-0.3473,-0.3473,-0.3479,0,0,0,0,0,0,-0.3474,-0.3474,-0.3476,-0.3474,-0.3473,-0.3475,-0.3471,-0.347,-0.347,-0.347,-0.3468,-0.3468,-0.3466,-0.3468,-0.3468,-0.347,-0.3465,-0.3473,-0.3473,-0.3473,-0.3479,-0.348,-0.348,0,0,0,0,0,-0.3475,-0.3477,-0.3476,-0.3476,-0.3475,-0.3475,-0.3475,-0.3473,-0.347,-0.3472,-0.347,-0.3468,-0.347,-0.3468,-0.3468,-0.347,-0.3472,-0.3473,-0.3473,-0.3478,-0.348,-0.348,0,0,0,0,0,0,-0.348,-0.3477,-0.3475,-0.3477,-0.3477,-0.3474,-0.3476,-0.3474,-0.3474,-0.3473,-0.347,-0.347,-0.3472,-0.3472,-0.3469,-0.3474,-0.3471,-0.3471,-0.3475,-0.3476,-0.3476,-0.3477,-0.3465,0,0,0,0,0,-0.3481,-0.3482,-0.3479,-0.3481,-0.3481,-0.3479,-0.3479,-0.3477,-0.3476,-0.3476,-0.3475,-0.3474,-0.3475,-0.3475,-0.3475,-0.3479,-0.3478,-0.348,-0.3481,-0.3482,-0.3483,-0.3485,-0.3486,-0.3475,-0.3475,-0.3475,0,0,-0.3484,-0.3482,-0.3483,-0.3482,-0.3482,-0.3483,-0.3478,-0.3479,-0.348,-0.3476,-0.3478,-0.3477,-0.3476,-0.3479,-0.348,-0.3478,-0.3485,-0.3482,-0.3483,-0.3483,-0.3485,-0.3486,-0.3487,-0.3475,-0.3475,-0.3475,0,0,-0.349,-0.3488,-0.349,-0.349,-0.3489,-0.3487,-0.3488,-0.3486,-0.3485,-0.3487,-0.3484,-0.3485,-0.3486,-0.3486,-0.3486,-0.3492,-0.349,-0.3492,-0.3496,-0.3499,-0.3499,-0.35,-0.3503,-0.3504,-0.3492,-0.3492,-0.3492,0,-0.3493,-0.3495,-0.3492,-0.3493,-0.3493,-0.3489,-0.3492,-0.3491,-0.349,-0.3491,-0.3489,-0.349,-0.3489,-0.3492,-0.3494,-0.3494,-0.3494,-0.3492,-0.3499,-0.35,-0.3501,-0.3504,-0.3504,-0.3493,-0.3493,-0.3493,-0.3493,0,-0.3499,-0.35,-0.3502,-0.3501,-0.3502,-0.3503,-0.3501,-0.3502,-0.35,-0.3499,-0.3501,-0.35,-0.35,-0.3501,-0.3499,-0.3503,-0.3502,-0.35,-0.3497,-0.3502,-0.3505,-0.3506,-0.3493,-0.3493,-0.3493,-0.3493,0,0,-0.3508,-0.3506,-0.3507,-0.3507,-0.3506,-0.3507,-0.3508,-0.3509,-0.351,-0.3509,-0.3511,-0.3512,-0.351,-0.351,-0.3508,-0.351,-0.3516,-0.3507,-0.3507,-0.3509,-0.3521,-0.3524,-0.3525,-0.3514,-0.3514,-0.3514,-0.3522,0,-0.3514,-0.3517,-0.3515,-0.3518,-0.3519,-0.3516,-0.3518,-0.3517,-0.3516,-0.3517,-0.3516,-0.3517,-0.3514,-0.3514,-0.3516,-0.3515,-0.3518,-0.3514,-0.3516,-0.3516,-0.3517,-0.3526,-0.3528,-0.3535,-0.3522,-0.3523,-0.3523,0,-0.3521,-0.3521,-0.3525,-0.3524,-0.3524,-0.3526,-0.3526,-0.3527,-0.3527,-0.3526,-0.3526,-0.3524,-0.3526,-0.3523,-0.3526,-0.3523,-0.3524,-0.3523,-0.3524,-0.3524,-0.352,-0.3527,-0.3537,-0.3538,-0.3524,-0.3524,-0.3524,0,-0.3528,-0.3529,-0.3531,-0.3531,-0.353,-0.3532,-0.3531,-0.3531,-0.3531,-0.3532,-0.3532,-0.3533,-0.3533,-0.3534,-0.3532,-0.3529,-0.3536,-0.3532,-0.3535,-0.3535,-0.3537,-0.3537,-0.3548,-0.3537,-0.3537,-0.3537,-0.3537,0,-0.3535,-0.3537,-0.3535,-0.3536,-0.3539,-0.3536,-0.3539,-0.3539,-0.3538,-0.354,-0.3537,-0.3539,-0.3536,-0.3537,-0.3536,-0.3539,-0.3539,-0.3539,-0.3538,-0.3539,-0.3539,-0.354,-0.354,-0.3537,-0.3537,-0.3537,-0.3537,0,-0.3543,-0.3541,-0.3544,-0.3542,-0.3542,-0.3544,-0.3544,-0.3545,-0.3544,-0.3546,-0.3546,-0.3545,-0.3546,-0.3545,-0.3546,-0.3545,-0.3549,-0.3548,-0.355,-0.3549,-0.3553,-0.3553,-0.3565,-0.3567,-0.3554,-0.3554,-0.3555,0,-0.3548,-0.3549,-0.3549,-0.3549,-0.3549,-0.3551,-0.3551,-0.3549,-0.355,-0.355,-0.3552,-0.3553,-0.3554,-0.3557,-0.3556,-0.3557,-0.3556,-0.356,-0.3556,-0.3557,-0.3557,-0.3557,-0.3557,-0.3561,-0.3561,-0.3561,-0.3562,0,-0.3556,-0.3555,-0.3556,-0.3557,-0.3558,-0.3559,-0.3559,-0.356,-0.3558,-0.3559,-0.3561,-0.3561,-0.3563,-0.3565,-0.3566,-0.3565,-0.3563,-0.3563,-0.3564,-0.3565,-0.3566,-0.3566,-0.3552,-0.3563,-0.3562,-0.3562,-0.3562,-0.3562,-0.3563,-0.3565,-0.3565,-0.3566,-0.3566,-0.3567,-0.3568,-0.3568,-0.3569,-0.357,-0.3569,-0.3571,-0.3571,-0.3572,-0.3572,-0.3574,-0.3573,-0.3574,-0.3574,-0.3575,-0.3576,-0.3565,-0.3574,-0.3574,-0.3574,-0.3574,-0.3574,0,-0.3572,-0.3572,-0.3573,-0.3574,-0.3575,-0.3573,-0.3574,-0.3575,-0.3577,-0.3577,-0.3578,-0.3581,-0.3582,-0.3581,-0.3583,-0.3585,-0.3584,-0.3585,-0.3585,-0.3585,-0.3577,-0.3576,-0.3586,-0.3586,-0.3586,-0.3586,-0.3586,-0.3586,-0.3577,-0.358,-0.3579,-0.3583,-0.3583,-0.3585,-0.3585,-0.3586,-0.3586,-0.3589,-0.359,-0.359,-0.359,-0.3591,-0.3593,-0.3593,-0.3594,-0.3596,-0.3595,-0.3587,-0.3586,-0.3585,-0.3584,-0.3596,-0.3596,-0.3604,-0.3604,-0.3604]},{"header":{"parameterUnit":"m.s-1","parameterCategory":1,"la1":30.2991,"la2":30.254,"lo1":-89.0895,"lo2":-89.0444,"dy":0.0017,"dx":0.0017,"nx":28,"ny":28,"refTime":"2024-05-29T03:00:00:Z","depth":0,"parameterNumber":3,"parameterNumberName":"V-component_of_WINDS"},"data":[0,0,0,0,0,0,0,0,0,0,0,0,0,0,0,0,0,0,0,0,0,0,0,0,0,0,0,0,0,0,0,0,0,0,0,0,0,0,0,0,0,0,0,0,0,0,0,0,0,0,0,0,0,0,0,0,0,0,2.2127,2.2127,0,2.2094,2.2093,2.2093,2.2031,2.203,2.2029,2.2027,2.1994,2.1994,2.1994,0,0,0,0,0,0,0,0,0,0,0,0,0,2.2137,2.2137,2.2127,2.2127,2.2126,2.2094,2.2093,2.2093,2.2031,2.203,2.2028,2.2027,2.1994,2.1994,2.1994,0,0,0,0,0,0,0,0,0,0,0,0,0,2.2121,2.2137,2.2127,2.2092,2.2088,2.2094,2.2093,2.2093,2.2032,2.203,2.2028,2.2026,2.1994,2.1994,2.1994,2.2032,0,0,2.1995,2.1995,0,0,0,0,0,0,0,0,2.2122,2.2121,2.2097,2.2094,2.209,2.2065,2.2084,2.2073,2.2032,2.2053,2.2027,2.2025,2.2019,2.2017,2.2015,2.2031,2.2029,2.1995,2.1995,2.1996,2.1996,0,0,0,0,0,0,0,2.2123,2.2122,2.2114,2.2097,2.2093,2.2077,2.2073,2.2082,2.2046,2.2051,2.2046,2.2043,2.2017,2.2015,2.2013,2.2029,2.1995,2.1996,2.1996,2.1996,2.2072,2.2074,0,0,0,0,0,0,2.213,2.2123,2.2115,2.2113,2.2102,2.2078,2.2074,2.2075,2.2046,2.204,2.2045,2.2041,2.2015,2.2013,2.2012,2.2053,2.1996,2.1996,2.1996,2.2071,2.2073,2.2075,0,0,0,0,0,0,2.213,2.213,2.2116,2.2117,2.2114,2.208,2.2082,2.2075,2.2073,2.2042,2.2035,2.2049,2.2013,2.2012,2.2027,2.2051,2.1996,2.1996,2.2068,2.2071,2.2074,2.2137,0,0,0,0,0,0,2.2131,2.213,2.2144,2.2118,2.2114,2.2133,2.2083,2.2076,2.2074,2.2068,2.2044,2.2038,2.2012,2.2027,2.2028,2.2051,2.1997,2.2066,2.207,2.2073,2.2133,2.2142,2.215,0,0,0,0,0,2.2131,2.2164,2.2145,2.2145,2.2131,2.2134,2.2132,2.2101,2.2076,2.209,2.2069,2.2039,2.2049,2.2029,2.2029,2.2053,2.2064,2.2069,2.2073,2.2129,2.214,2.2149,0,0,0,0,0,0,2.2195,2.216,2.2139,2.2164,2.2153,2.2124,2.214,2.2114,2.2109,2.2104,2.2065,2.206,2.2081,2.2068,2.2047,2.2087,2.2052,2.2056,2.2095,2.2105,2.2113,2.2115,2.1997,0,0,0,0,0,2.2212,2.2217,2.2186,2.2211,2.2207,2.2175,2.2175,2.2151,2.2138,2.2133,2.2114,2.2102,2.2102,2.2103,2.2101,2.2131,2.2124,2.2147,2.2155,2.2162,2.2166,2.218,2.2189,2.2088,2.2088,2.2088,0,0,2.2247,2.2229,2.2234,2.2224,2.2212,2.2218,2.2171,2.218,2.2183,2.2134,2.2147,2.2133,2.2117,2.2139,2.2148,2.213,2.2193,2.2168,2.2174,2.2174,2.2185,2.2194,2.2203,2.2091,2.2091,2.209,0,0,2.2314,2.2301,2.232,2.2309,2.2291,2.227,2.2274,2.2249,2.2237,2.225,2.2213,2.2217,2.2218,2.2208,2.2203,2.2264,2.2236,2.2265,2.2308,2.2322,2.233,2.2336,2.2357,2.2365,2.2269,2.2269,2.2269,0,2.236,2.2367,2.2333,2.2343,2.2339,2.2295,2.2313,2.2304,2.2287,2.2285,2.2265,2.2264,2.2251,2.2269,2.2284,2.2282,2.2285,2.2267,2.2331,2.2338,2.2344,2.2363,2.2371,2.2273,2.2273,2.2272,2.2272,0,2.2424,2.2429,2.2447,2.2431,2.2429,2.2443,2.2411,2.2413,2.2389,2.237,2.2383,2.2364,2.2358,2.236,2.2338,2.2376,2.2364,2.2338,2.2301,2.2357,2.2375,2.2382,2.2278,2.2277,2.2276,2.2275,0,0,2.253,2.2494,2.2501,2.2493,2.247,2.2473,2.2485,2.2478,2.248,2.247,2.2478,2.248,2.2455,2.2449,2.2426,2.2437,2.2486,2.2409,2.2408,2.2423,2.2524,2.2543,2.2553,2.2467,2.2468,2.2469,2.2525,0,2.2591,2.2609,2.2578,2.2604,2.2608,2.2565,2.2575,2.2562,2.2544,2.2544,2.2524,2.2525,2.2493,2.2489,2.2499,2.2478,2.2505,2.2473,2.2474,2.2474,2.2478,2.2562,2.2583,2.2636,2.2532,2.2533,2.2534,0,2.2665,2.2657,2.2683,2.2657,2.2657,2.2667,2.2658,2.2659,2.2643,2.2628,2.2622,2.2593,2.2602,2.2567,2.2579,2.2558,2.2556,2.2546,2.2547,2.2545,2.2507,2.2561,2.2653,2.2661,2.2544,2.2544,2.2543,0,2.2738,2.2735,2.2749,2.2743,2.2714,2.2722,2.271,2.2692,2.2689,2.2681,2.2678,2.2672,2.2668,2.2663,2.2633,2.261,2.2647,2.261,2.2635,2.2636,2.2644,2.2644,2.2736,2.2645,2.2645,2.2645,2.2645,0,2.2809,2.2826,2.2781,2.279,2.2808,2.2772,2.279,2.2774,2.2758,2.2762,2.2725,2.273,2.2691,2.2691,2.2668,2.268,2.2679,2.2667,2.2661,2.267,2.2672,2.2668,2.2663,2.2647,2.2646,2.2646,2.2646,0,2.2894,2.2865,2.2877,2.2848,2.2841,2.2855,2.283,2.2837,2.2816,2.2822,2.2821,2.2788,2.2787,2.2756,2.2749,2.2733,2.2754,2.2741,2.276,2.2755,2.2782,2.2779,2.2873,2.2883,2.2787,2.2788,2.2789,0,2.294,2.2952,2.2924,2.2924,2.2914,2.2915,2.2912,2.2877,2.2875,2.2857,2.2865,2.2861,2.2855,2.2854,2.283,2.2823,2.2809,2.2843,2.2808,2.2817,2.2808,2.2808,2.2808,2.285,2.2851,2.2852,2.2853,0,2.3026,2.3011,2.3008,2.2999,2.2996,2.2988,2.2978,2.298,2.2941,2.2941,2.2938,2.2934,2.2926,2.2921,2.291,2.2897,2.2868,2.2864,2.2869,2.2879,2.2888,2.2882,2.2779,2.2862,2.2861,2.286,2.286,2.2859,2.3092,2.3101,2.3082,2.3079,2.3067,2.3058,2.3062,2.3041,2.3039,2.3029,2.3008,2.3009,2.2991,2.2973,2.2963,2.2962,2.2945,2.2953,2.2955,2.2957,2.2962,2.2889,2.296,2.296,2.296,2.2959,2.2959,0,2.3175,2.3161,2.3159,2.3144,2.3142,2.3115,2.3102,2.3102,2.3103,2.3088,2.3083,2.308,2.3075,2.305,2.3042,2.3046,2.3033,2.3045,2.3044,2.3042,2.2978,2.2974,2.3056,2.3056,2.3056,2.3056,2.3056,2.3056,2.3218,2.323,2.3212,2.3218,2.3203,2.3203,2.3197,2.3188,2.3176,2.3174,2.317,2.3153,2.3134,2.3124,2.3118,2.3111,2.3109,2.3126,2.3114,2.3056,2.3046,2.3037,2.3033,2.3126,2.3126,2.3177,2.3178,2.3178]}]]